[[{"header":{"parameterUnit":"m.s-1","parameterCategory":1,"la1":30.2991,"la2":30.254,"lo1":-89.0895,"lo2":-89.0444,"dy":0.0017,"dx":0.0017,"nx":28,"ny":28,"refTime":"2025-09-01T03:00:00:Z","depth":0,"parameterNumber":2,"parameterNumberName":"U-component_of_WINDS"},"data":[0,0,0,0,0,0,0,0,0,0,0,0,0,0,0,0,0,0,0,0,0,0,0,0,0,0,0,0,0,0,0,0,0,0,0,0,0,0,0,0,0,0,0,0,0,0,0,0,0,0,0,0,0,0,0,0,0,0,-3.3073,-3.3074,0,-3.3159,-3.316,-3.3161,-3.3083,-3.308,-3.3077,-3.3074,-3.3164,-3.3169,-3.3174,0,0,0,0,0,0,0,0,0,0,0,0,0,-3.284,-3.2844,-3.3073,-3.3074,-3.3075,-3.3159,-3.316,-3.3162,-3.3084,-3.308,-3.3076,-3.3072,-3.3162,-3.3168,-3.3174,0,0,0,0,0,0,0,0,0,0,0,0,0,-3.2935,-3.2846,-3.3073,-3.3046,-3.3045,-3.3159,-3.316,-3.3162,-3.3084,-3.308,-3.3075,-3.307,-3.316,-3.3167,-3.3175,-3.332,0,0,-3.32,-3.3203,0,0,0,0,0,0,0,0,-3.293,-3.2944,-3.3049,-3.3048,-3.3047,-3.3105,-3.3111,-3.3215,-3.3086,-3.3069,-3.3074,-3.3068,-3.3148,-3.3157,-3.3184,-3.3325,-3.3329,-3.3201,-3.3206,-3.3209,-3.3211,0,0,0,0,0,0,0,-3.2923,-3.294,-3.3107,-3.3051,-3.3049,-3.303,-3.3038,-3.313,-3.3135,-3.307,-3.3065,-3.3076,-3.3147,-3.3176,-3.3185,-3.333,-3.32,-3.3208,-3.3213,-3.3216,-3.3593,-3.3598,0,0,0,0,0,0,-3.2919,-3.2935,-3.3104,-3.311,-3.2975,-3.3038,-3.3047,-3.3091,-3.3133,-3.3135,-3.308,-3.3072,-3.3165,-3.3176,-3.3188,-3.3359,-3.3209,-3.3216,-3.3221,-3.3588,-3.3594,-3.36,0,0,0,0,0,0,-3.2915,-3.2935,-3.3101,-3.3021,-3.304,-3.3047,-3.3097,-3.3096,-3.3125,-3.3141,-3.3141,-3.311,-3.3161,-3.3177,-3.3288,-3.3361,-3.322,-3.3227,-3.3582,-3.359,-3.3597,-3.3704,0,0,0,0,0,0,-3.2908,-3.2934,-3.2989,-3.3023,-3.3045,-3.3199,-3.3102,-3.3101,-3.3139,-3.3129,-3.3168,-3.317,-3.3159,-3.3276,-3.3296,-3.337,-3.3234,-3.3575,-3.3585,-3.3594,-3.3694,-3.3714,-3.3732,0,0,0,0,0,-3.29,-3.3017,-3.2993,-3.3013,-3.3114,-3.3204,-3.3216,-3.3201,-3.3145,-3.32,-3.321,-3.3169,-3.335,-3.3288,-3.3309,-3.3387,-3.357,-3.3582,-3.3594,-3.3685,-3.371,-3.3731,0,0,0,0,0,0,-3.2992,-3.302,-3.2994,-3.3125,-3.3162,-3.319,-3.3259,-3.3228,-3.3282,-3.3271,-3.325,-3.3259,-3.3376,-3.3393,-3.3323,-3.3529,-3.3451,-3.3468,-3.3513,-3.3537,-3.3556,-3.3549,-3.324,0,0,0,0,0,-3.3028,-3.3098,-3.3119,-3.3232,-3.3252,-3.3253,-3.3291,-3.3276,-3.3314,-3.333,-3.3348,-3.3387,-3.3452,-3.3496,-3.3557,-3.3696,-3.3703,-3.376,-3.3779,-3.3795,-3.3809,-3.3882,-3.3907,-3.3638,-3.3638,-3.3638,0,0,-3.3102,-3.3126,-3.3171,-3.3251,-3.3278,-3.3351,-3.3267,-3.3348,-3.3402,-3.3342,-3.3447,-3.3463,-3.3504,-3.363,-3.3686,-3.3647,-3.3885,-3.381,-3.3822,-3.3827,-3.3896,-3.3922,-3.3945,-3.3646,-3.3644,-3.3643,0,0,-3.3273,-3.3299,-3.3395,-3.3424,-3.3466,-3.3466,-3.3489,-3.3522,-3.353,-3.3635,-3.3591,-3.3655,-3.3769,-3.38,-3.3831,-3.4014,-3.3978,-3.4035,-3.4134,-3.4206,-3.4227,-3.4246,-3.431,-3.4333,-3.4049,-3.405,-3.405,0,-3.3359,-3.3467,-3.3449,-3.3533,-3.3568,-3.3518,-3.3614,-3.3644,-3.3704,-3.373,-3.3686,-3.3827,-3.3852,-3.3983,-3.4027,-3.4055,-3.408,-3.403,-3.4226,-3.4244,-3.4261,-3.4322,-3.4346,-3.4056,-3.4056,-3.4055,-3.4054,0,-3.3571,-3.3647,-3.3719,-3.3778,-3.3822,-3.3912,-3.3907,-3.3954,-3.3935,-3.3939,-3.4047,-3.4075,-3.414,-3.4171,-3.4153,-3.4299,-3.4274,-3.4229,-3.415,-3.4294,-3.435,-3.4373,-3.4066,-3.4063,-3.4061,-3.406,0,0,-3.3802,-3.3849,-3.3876,-3.3901,-3.3944,-3.4002,-3.409,-3.4153,-3.4193,-3.4237,-3.4309,-3.4407,-3.4365,-3.44,-3.4386,-3.4449,-3.459,-3.4395,-3.4396,-3.4429,-3.4751,-3.4784,-3.4811,-3.4567,-3.4571,-3.4574,-3.4747,0,-3.3973,-3.4125,-3.4111,-3.4255,-3.4323,-3.4276,-3.4352,-3.4387,-3.4394,-3.4453,-3.446,-3.4529,-3.4469,-3.449,-3.455,-3.456,-3.4654,-3.4548,-3.4633,-3.4636,-3.4622,-3.4841,-3.4876,-3.5037,-3.4769,-3.4773,-3.4775,0,-3.4194,-3.4244,-3.4395,-3.4426,-3.4454,-3.4523,-3.4579,-3.4637,-3.4675,-3.4676,-3.4715,-3.469,-3.4777,-3.4698,-3.4818,-3.4746,-3.4781,-3.4791,-3.4797,-3.4803,-3.4713,-3.4851,-3.5088,-3.5112,-3.481,-3.4808,-3.4805,0,-3.4345,-3.4451,-3.4554,-3.4578,-3.4617,-3.4666,-3.4685,-3.4719,-3.4757,-3.4807,-3.4832,-3.4892,-3.4924,-3.4971,-3.4962,-3.4906,-3.5085,-3.5005,-3.5087,-3.5087,-3.5126,-3.5123,-3.537,-3.5151,-3.515,-3.515,-3.515,0,-3.4537,-3.4631,-3.4622,-3.4686,-3.4789,-3.4772,-3.4875,-3.4887,-3.4917,-3.4982,-3.4946,-3.5008,-3.4993,-3.5055,-3.5049,-3.5149,-3.5165,-3.5167,-3.5164,-3.5169,-3.5169,-3.519,-3.5178,-3.5156,-3.5155,-3.5154,-3.5153,0,-3.4723,-3.4721,-3.483,-3.4859,-3.4868,-3.4943,-3.4967,-3.5027,-3.503,-3.5113,-3.5131,-3.5137,-3.5207,-3.5204,-3.5284,-3.528,-3.5402,-3.5387,-3.5389,-3.5385,-3.5467,-3.5459,-3.5735,-3.5769,-3.553,-3.5532,-3.5534,0,-3.4845,-3.4915,-3.4951,-3.4992,-3.5014,-3.508,-3.5119,-3.5105,-3.5147,-3.5195,-3.5249,-3.5316,-3.5368,-3.5483,-3.5495,-3.5555,-3.554,-3.5633,-3.5549,-3.5552,-3.554,-3.5535,-3.5541,-3.5649,-3.5652,-3.5654,-3.5656,0,-3.5061,-3.5056,-3.5114,-3.5171,-3.5219,-3.5263,-3.5304,-3.534,-3.533,-3.5379,-3.545,-3.5491,-3.5572,-3.5639,-3.5697,-3.5716,-3.5685,-3.5682,-3.5704,-3.5709,-3.5707,-3.5708,-3.5432,-3.5676,-3.5674,-3.5672,-3.5671,-3.567,-3.5217,-3.5277,-3.5311,-3.5376,-3.5405,-3.5444,-3.5501,-3.5512,-3.557,-3.5635,-3.5623,-3.5703,-3.5738,-3.5813,-3.5838,-3.59,-3.5867,-3.5899,-3.5907,-3.5914,-3.5923,-3.5698,-3.5911,-3.591,-3.591,-3.5909,-3.5909,0,-3.5429,-3.5449,-3.5509,-3.5567,-3.5618,-3.5584,-3.5627,-3.5672,-3.5742,-3.5778,-3.583,-3.5911,-3.5976,-3.5992,-3.6054,-3.6101,-3.6088,-3.6117,-3.6113,-3.6117,-3.595,-3.5924,-3.6127,-3.6127,-3.6126,-3.6126,-3.6126,-3.6126,-3.5546,-3.5645,-3.5645,-3.5758,-3.5777,-3.5854,-3.5881,-3.5917,-3.5945,-3.6037,-3.609,-3.61,-3.6128,-3.6192,-3.6249,-3.6252,-3.6276,-3.6311,-3.6309,-3.6151,-3.6129,-3.6109,-3.6084,-3.6317,-3.6317,-3.6471,-3.6472,-3.6473]},{"header":{"parameterUnit":"m.s-1","parameterCategory":1,"la1":30.2991,"la2":30.254,"lo1":-89.0895,"lo2":-89.0444,"dy":0.0017,"dx":0.0017,"nx":28,"ny":28,"refTime":"2025-09-01T03:00:00:Z","depth":0,"parameterNumber":3,"parameterNumberName":"V-component_of_WINDS"},"data":[0,0,0,0,0,0,0,0,0,0,0,0,0,0,0,0,0,0,0,0,0,0,0,0,0,0,0,0,0,0,0,0,0,0,0,0,0,0,0,0,0,0,0,0,0,0,0,0,0,0,0,0,0,0,0,0,0,0,-1.5262,-1.526,0,-1.5129,-1.5127,-1.5126,-1.5047,-1.5047,-1.5046,-1.5046,-1.4904,-1.4901,-1.4898,0,0,0,0,0,0,0,0,0,0,0,0,0,-1.544,-1.5437,-1.5262,-1.526,-1.5259,-1.5129,-1.5127,-1.5125,-1.5047,-1.5047,-1.5046,-1.5046,-1.4905,-1.4901,-1.4897,0,0,0,0,0,0,0,0,0,0,0,0,0,-1.534,-1.5436,-1.5262,-1.5204,-1.5198,-1.513,-1.5127,-1.5125,-1.5047,-1.5047,-1.5046,-1.5046,-1.4907,-1.4902,-1.4897,-1.4874,0,0,-1.4881,-1.4878,0,0,0,0,0,0,0,0,-1.5346,-1.5334,-1.5214,-1.5208,-1.52,-1.5104,-1.5138,-1.5041,-1.5047,-1.5104,-1.5046,-1.5046,-1.4971,-1.496,-1.4936,-1.4868,-1.4862,-1.488,-1.4877,-1.4875,-1.4873,0,0,0,0,0,0,0,-1.5353,-1.5339,-1.5209,-1.5213,-1.5204,-1.5182,-1.5167,-1.5119,-1.5042,-1.5099,-1.5093,-1.5079,-1.4967,-1.4942,-1.4932,-1.486,-1.488,-1.4876,-1.4873,-1.4871,-1.4761,-1.4761,0,0,0,0,0,0,-1.537,-1.5345,-1.5213,-1.5205,-1.5274,-1.5179,-1.5163,-1.5135,-1.5042,-1.5027,-1.5079,-1.5076,-1.4951,-1.4939,-1.4927,-1.4892,-1.4875,-1.487,-1.4867,-1.4761,-1.4761,-1.4761,0,0,0,0,0,0,-1.5374,-1.5359,-1.5219,-1.5273,-1.5254,-1.5177,-1.5147,-1.5133,-1.5108,-1.5027,-1.5012,-1.5068,-1.495,-1.4934,-1.4887,-1.4886,-1.4868,-1.4863,-1.4761,-1.4761,-1.4761,-1.4824,0,0,0,0,0,0,-1.538,-1.5361,-1.5354,-1.5274,-1.5251,-1.5184,-1.5147,-1.5131,-1.51,-1.5094,-1.5013,-1.4999,-1.4948,-1.4896,-1.4882,-1.4879,-1.4859,-1.476,-1.4761,-1.4761,-1.4822,-1.4827,-1.4831,0,0,0,0,0,-1.5386,-1.5377,-1.5354,-1.5339,-1.5241,-1.5184,-1.5171,-1.5115,-1.51,-1.5091,-1.5038,-1.5001,-1.4889,-1.4892,-1.4876,-1.4871,-1.476,-1.4761,-1.4761,-1.482,-1.4826,-1.4831,0,0,0,0,0,0,-1.5458,-1.5365,-1.5339,-1.5304,-1.5253,-1.5171,-1.5158,-1.5123,-1.5074,-1.507,-1.5,-1.4982,-1.4941,-1.4901,-1.4906,-1.4842,-1.482,-1.4817,-1.487,-1.4875,-1.4879,-1.4889,-1.4855,0,0,0,0,0,-1.547,-1.5433,-1.5354,-1.533,-1.5306,-1.5236,-1.5209,-1.517,-1.5114,-1.5091,-1.5035,-1.498,-1.4931,-1.4901,-1.4852,-1.4815,-1.4795,-1.4804,-1.4808,-1.4812,-1.481,-1.4784,-1.4786,-1.4763,-1.4763,-1.4763,0,0,-1.5493,-1.5438,-1.542,-1.5343,-1.5298,-1.5259,-1.5219,-1.518,-1.5149,-1.5084,-1.5037,-1.4993,-1.4926,-1.4884,-1.4862,-1.4849,-1.4812,-1.4813,-1.4817,-1.4812,-1.4785,-1.4787,-1.4789,-1.4763,-1.4763,-1.4763,0,0,-1.5516,-1.5473,-1.5447,-1.5403,-1.5336,-1.529,-1.5283,-1.5206,-1.5175,-1.5127,-1.5076,-1.5037,-1.4956,-1.4909,-1.4875,-1.4877,-1.484,-1.4862,-1.4885,-1.4861,-1.4863,-1.4864,-1.4862,-1.4862,-1.4861,-1.4861,-1.4861,0,-1.5554,-1.5496,-1.5437,-1.5401,-1.5367,-1.5307,-1.5278,-1.5238,-1.5158,-1.5134,-1.5121,-1.5016,-1.4967,-1.4911,-1.4911,-1.4886,-1.4874,-1.4871,-1.4868,-1.4868,-1.4868,-1.4865,-1.4865,-1.4864,-1.4864,-1.4864,-1.4863,0,-1.5543,-1.5503,-1.549,-1.5416,-1.538,-1.5348,-1.5281,-1.5252,-1.5215,-1.5169,-1.5117,-1.5056,-1.4992,-1.4975,-1.4939,-1.4913,-1.4906,-1.4881,-1.4858,-1.4875,-1.4871,-1.4869,-1.4869,-1.4868,-1.4867,-1.4866,0,0,-1.561,-1.5502,-1.5497,-1.5461,-1.5382,-1.5348,-1.5311,-1.525,-1.5225,-1.5171,-1.5136,-1.5067,-1.5042,-1.5003,-1.496,-1.4939,-1.494,-1.4916,-1.4913,-1.4921,-1.4904,-1.4923,-1.4923,-1.4916,-1.4915,-1.4915,-1.4909,0,-1.562,-1.5553,-1.5498,-1.545,-1.541,-1.5351,-1.5318,-1.5264,-1.5219,-1.5176,-1.5125,-1.5077,-1.5049,-1.5025,-1.5001,-1.4946,-1.4936,-1.4945,-1.4879,-1.4878,-1.4898,-1.4921,-1.4942,-1.494,-1.4907,-1.4907,-1.4907,0,-1.5623,-1.5572,-1.5522,-1.5443,-1.5424,-1.5396,-1.5334,-1.5295,-1.5231,-1.5199,-1.5154,-1.5109,-1.5063,-1.5044,-1.4978,-1.4986,-1.4955,-1.4923,-1.4922,-1.4913,-1.4893,-1.4911,-1.4938,-1.4937,-1.4904,-1.4905,-1.4905,0,-1.5674,-1.5592,-1.555,-1.5522,-1.543,-1.5411,-1.5372,-1.5307,-1.5273,-1.5217,-1.5193,-1.5133,-1.5099,-1.5052,-1.499,-1.4982,-1.4929,-1.4906,-1.4899,-1.49,-1.489,-1.4892,-1.4911,-1.4873,-1.4873,-1.4873,-1.4873,0,-1.569,-1.5661,-1.5572,-1.5546,-1.551,-1.5445,-1.541,-1.5364,-1.5307,-1.5269,-1.5213,-1.5178,-1.5099,-1.5053,-1.5004,-1.4955,-1.494,-1.4911,-1.4898,-1.4916,-1.4919,-1.4894,-1.4892,-1.4873,-1.4873,-1.4873,-1.4873,0,-1.5741,-1.5681,-1.5631,-1.5548,-1.5526,-1.5502,-1.543,-1.54,-1.5351,-1.5304,-1.5288,-1.5211,-1.5153,-1.5087,-1.5008,-1.4974,-1.4929,-1.491,-1.4951,-1.4943,-1.494,-1.4941,-1.4943,-1.4938,-1.4905,-1.4906,-1.4906,0,-1.5755,-1.5731,-1.5645,-1.5617,-1.5579,-1.5534,-1.5498,-1.5431,-1.5396,-1.5319,-1.5299,-1.5237,-1.5185,-1.5095,-1.503,-1.4968,-1.4947,-1.4952,-1.4937,-1.4954,-1.4944,-1.4946,-1.4942,-1.4956,-1.4957,-1.4957,-1.4958,0,-1.5786,-1.5756,-1.5709,-1.565,-1.5609,-1.5559,-1.5506,-1.5485,-1.5407,-1.5369,-1.5311,-1.5271,-1.5189,-1.5128,-1.5057,-1.5012,-1.4971,-1.4963,-1.4957,-1.4974,-1.4998,-1.4983,-1.4961,-1.4963,-1.4962,-1.4962,-1.4962,-1.4961,-1.5817,-1.5792,-1.5727,-1.5674,-1.5628,-1.5579,-1.5547,-1.5494,-1.5445,-1.5375,-1.5337,-1.5279,-1.521,-1.5112,-1.5068,-1.5019,-1.5005,-1.4998,-1.4996,-1.4995,-1.4999,-1.5007,-1.5006,-1.5006,-1.5005,-1.5005,-1.5005,0,-1.5843,-1.5798,-1.5751,-1.5679,-1.5636,-1.5603,-1.5541,-1.5508,-1.5458,-1.5399,-1.5348,-1.5279,-1.5218,-1.5148,-1.5082,-1.5055,-1.5034,-1.504,-1.5041,-1.503,-1.5016,-1.5027,-1.5058,-1.5058,-1.5058,-1.5058,-1.5058,-1.5058,-1.5852,-1.5806,-1.5769,-1.5698,-1.5652,-1.5596,-1.5563,-1.5517,-1.5469,-1.5395,-1.5345,-1.53,-1.5235,-1.5163,-1.5105,-1.5085,-1.5063,-1.5074,-1.5048,-1.5036,-1.5032,-1.5028,-1.5037,-1.507,-1.507,-1.5066,-1.5066,-1.5066]}]]